COSMOS 1550

导读

COSMOS 1550是独联体(CIS)继承自苏联航天遗产的一颗“宇宙”系列卫星,于1984年5月11日发射入轨。冷战背景下,该系列卫星多承担军事侦察、电子情报收集等任务,运行于近地轨道,为苏联战略情报获取提供空间支撑。作为苏联空间军事化布局的组成部分,它反映了当时超级大国在航天侦察领域的技术竞争与战略部署,任务结束后已陨落成为空间碎片。

Basic Information
目录编号:
14965
目录名称:
COSMOS 1550
国际标识:
1984-043A
轨道中心:
EARTH
卫星名称:
COSMOS 1550
卫星全名:
--
卫星状态:
在轨 (已飞行15372 天)
发射日期:
1984-05-11 UTC
国别 :
俄罗斯(独联体) (CIS)
星等 :
--
Orbit Information
数据来源 国际轨道数据 AOE轨道数据
星历时间 2026-06-12T13:48:41+0800
16小时前
查看轨道信息
2026-06-13T00:00:00+0800
6小时前
查看轨道信息
半长轴 7366.866km 7366.863km
偏心率 0.0026442 0.0026181
轨道倾角 82.973° 82.973°
近地点辐角 36.308° 36.008°
升交点赤经 223.766° 223.454°
平近点角 26.291° 323.818°
近地点 969.249km 969.438km
远地点 1008.209km 1008.014km
周期 104.878分钟 104.878分钟
每日圈数 13.730256 13.730266
Detailed Information
使用方式:
暂无
2D Orbit Map
3D Orbit Map
Orbit Altitude Analysis Chart
Orbit Inclination Analysis Chart
Orbit Comprehensive Analysis Chart
View Comprehensive Chart